Location: Tauranga
(37.6860°S, 176.1670°E)
Time: 22:05:15
(UTC+13:00)

Cosmos 968 Rocket - Pass Details

Date: 24 January 2019
Orbit: 740 x 771 km, 74.0° (Epoch: 17 October)

Event Time Altitude Azimuth Distance (km) Brightness Sun altitude
Exits shadow 23:03:47 64° 62° (ENE) 848 3.4 -23.8°
Maximum altitude 23:03:58 64° 75° (ENE) 845 3.4 -23.9°
Drops below altitude 10° 23:09:09 10° 155° (SSE) 2,308 6.3 -24.5°
Sets 23:11:36 0° 158° (SSE) 3,262 7.2 -24.8°
